sat.trackr.live / text

‹ back to catalog

STARLINK-5263

NORAD 54193 · 2022-141AN

PAYLOAD ACTIVE UNKNOWN

§ Identity

Operator
Country
US
Launch date
2022-10-28
Launch site
AFWTR
Launch vehicle
Mass (kg)
RCS (m²)

Purposes: comms

External: N2YO · Heavens-Above · Gunter

§ Orbital elements

Epoch: 2026-05-25T02:33:21.687264Z

Period
95.44 min
Inclination
53.2112°
Eccentricity
0.0001634
Mean motion
15.08853293 rev/d
Perigee alt
538.6 km
Apogee alt
540.8 km
Semi-major
6,917.8 km
B*
6.6010e-6
RAAN
11.1125°
Arg perigee
76.1342°
Mean anomaly
283.9832°
Rev number
19,753

§ Raw data

STARLINK-52631 54193U 22141AN  26145.10650101 -.00000183  00000+0  66010-5 0  99942 54193  53.2112  11.1125 0001634  76.1342 283.9832 15.08853293197530

JSON: /api/v1/satellites/54193 · /tle

For live sub-satellite position, see the globe view (requires WebGL).

§ Visibility from observer

Set your observer location to see the next 7 days of passes ≥ 10°. The values pass through the URL so the page stays shareable.

No JS? Fill the form by hand. The geolocation button needs JavaScript.